User: anonymous   Login
Location: Unspecified
(0.0000°N, 0.0000°E)
Time: 00:53:20
(UTC+00:00)
Language:

ONEWEB-0042 - Orbit

View from above orbital plane
View from above orbital plane
View from above satellite
View from above satellite

Ground track
Ground track

The orbit is defined by the following mean orbital elements,

1 45441U          26145.38637645 +.00000000 +00000-0 -14029-2 0 00000
2 45441  87.8916  25.5937 0001890  80.7288 279.4053 13.11417070    06
Epoch (UTC): 25 May 2026 09:16:22
Eccentricity: 0.0001890
inclination: 87.8916°
perigee height: 1216 km
apogee height: 1219 km
right ascension of ascending node: 25.5937°
argument of perigee: 80.7288°
revolutions per day: 13.11417070
mean anomaly at epoch: 279.4053°

The dashed part of the orbit path shows where the satellite is in the earth's shadow,  

DLR